Date,Time,Wetness (Wet Dry or Ice),Wind Speed (m/s),Temperature (C),Humidity (%),Pressure (mb),Radiation (W/m^2)
2020-10-23,03:45:00,WET,3.00,1.00,99.0,774.00,20.6
2020-10-23,03:50:00,WET,3.37,0.97,99.0,774.00,19.5
2020-10-23,03:55:00,WET,3.25,1.05,99.0,774.00,19.4
2020-10-23,04:00:00,WET,3.63,1.07,99.7,774.00,19.5
2020-10-23,04:05:00,WET,3.10,1.25,100.0,774.00,19.4
2020-10-23,04:10:00,WET,3.67,1.30,100.0,774.00,19.5
2020-10-23,04:15:00,WET,3.65,1.25,100.0,774.00,20.1
2020-10-23,04:20:00,WET,3.40,1.33,98.3,774.00,19.1
2020-10-23,04:25:00,WET,2.90,1.35,97.5,774.00,18.3
2020-10-23,04:30:00,WET,3.63,1.20,96.7,774.00,18.3
2020-10-23,04:35:00,WET,4.10,1.45,99.5,774.00,22.2
2020-10-23,04:40:00,WET,4.03,1.83,80.3,774.00,17.9
2020-10-23,04:45:00,WET,4.35,1.60,95.5,774.00,18.4
2020-10-23,04:50:00,WET,3.30,1.47,97.0,774.00,17.4
2020-10-23,04:55:00,WET,3.60,1.55,95.5,774.00,16.5
2020-10-23,05:00:00,WET,3.60,2.20,94.0,774.00,17.8
2020-10-23,05:05:00,WET,3.60,2.55,75.5,774.00,14.5
2020-10-23,05:10:00,WET,3.20,2.80,71.7,774.00,15.2
2020-10-23,05:15:00,WET,3.50,2.40,85.5,774.00,16.1
2020-10-23,05:20:00,WET,3.17,2.40,77.0,774.00,15.4
2020-10-23,05:25:00,WET,3.05,2.05,80.0,774.00,15.2
2020-10-23,05:30:00,WET,2.47,1.47,89.0,774.00,15.5
2020-10-23,05:35:00,WET,3.35,1.40,86.5,774.50,16.9
2020-10-23,05:40:00,WET,3.40,1.40,90.3,774.33,19.1
2020-10-23,05:45:00,WET,4.00,1.50,90.5,774.50,17.7
2020-10-23,05:50:00,WET,4.70,1.50,96.7,774.67,20.5
2020-10-23,05:55:00,WET,5.10,1.40,99.0,774.00,22.1
2020-10-23,06:00:00,WET,3.80,1.40,99.3,774.67,21.1
2020-10-23,06:05:00,WET,3.45,1.50,94.5,775.00,16.2
2020-10-23,06:10:00,WET,4.63,1.23,94.7,774.67,17.6
2020-10-23,06:15:00,WET,4.80,1.70,87.0,775.00,17.6
2020-10-23,06:20:00,WET,5.33,1.80,87.7,775.00,16.8
2020-10-23,06:25:00,WET,4.95,1.70,82.5,775.00,14.1
2020-10-23,06:30:00,WET,3.57,1.53,94.0,775.00,17.1
2020-10-23,06:35:00,WET,4.25,1.95,99.5,775.00,23.9
2020-10-23,06:40:00,WET,3.60,1.90,100.0,775.00,22.2
2020-10-23,06:45:00,WET,4.50,2.10,100.0,775.00,20.8
2020-10-23,06:50:00,WET,3.57,2.07,100.0,775.00,22.8
2020-10-23,06:55:00,WET,4.45,1.90,100.0,775.00,22.8
2020-10-23,07:00:00,WET,4.63,1.70,100.0,775.00,25.8
2020-10-23,07:05:00,WET,4.45,1.80,100.0,775.00,25.1
2020-10-23,07:10:00,WET,4.77,1.97,100.0,775.00,22.9
2020-10-23,07:15:00,WET,4.25,2.60,100.0,775.00,26.9
2020-10-23,07:20:00,WET,5.13,2.57,100.0,775.00,28.4
2020-10-23,07:25:00,WET,4.50,2.45,100.0,775.00,31.0
2020-10-23,07:30:00,WET,5.33,2.20,100.0,775.00,33.5
2020-10-23,07:35:00,WET,6.40,2.30,100.0,775.00,39.0
2020-10-23,07:40:00,WET,5.03,2.50,100.0,775.00,46.7
2020-10-23,07:45:00,WET,5.60,2.60,100.0,775.00,61.0
2020-10-23,07:50:00,WET,4.43,2.60,100.0,775.00,64.8
2020-10-23,07:55:00,WET,5.35,2.85,100.0,775.00,60.0
2020-10-23,08:00:00,WET,4.47,2.90,100.0,775.33,83.1
2020-10-23,08:05:00,WET,3.10,2.95,100.0,776.00,95.8
2020-10-23,08:10:00,WET,2.90,2.87,100.0,776.00,170.2
2020-10-23,08:15:00,WET,5.15,2.75,100.0,776.00,205.1
2020-10-23,08:20:00,WET,4.90,2.50,100.0,776.00,190.0
2020-10-23,08:25:00,WET,5.35,2.15,100.0,776.00,165.1
2020-10-23,08:30:00,WET,5.37,2.03,100.0,776.00,237.5
2020-10-23,08:35:00,WET,5.55,2.50,100.0,776.00,207.2
2020-10-23,08:40:00,WET,5.27,2.13,100.0,776.00,264.4
2020-10-23,08:45:00,DRY,4.80,1.75,99.5,776.00,340.5
2020-10-23,08:50:00,DRY,4.77,2.40,95.7,776.00,326.4
2020-10-23,08:55:00,WET,6.70,2.75,97.5,776.00,228.8
2020-10-23,09:00:00,WET,4.70,3.00,99.7,776.00,210.0
2020-10-23,09:05:00,WET,5.50,3.25,100.0,776.00,236.3
2020-10-23,09:10:00,WET,4.67,3.37,100.0,776.00,324.0
2020-10-23,09:15:00,WET,4.95,2.80,100.0,776.00,335.1
2020-10-23,09:20:00,DRY,3.13,2.77,83.3,776.00,466.8
2020-10-23,09:25:00,DRY,2.95,3.60,56.0,776.00,481.4
2020-10-23,09:30:00,DRY,4.83,3.50,61.7,776.00,500.2
2020-10-23,09:35:00,DRY,3.95,3.05,59.5,776.00,519.6
2020-10-23,09:40:00,DRY,3.83,3.37,50.7,776.00,538.8
2020-10-23,09:45:00,DRY,4.40,3.90,49.0,776.00,558.9
2020-10-23,09:50:00,DRY,3.50,3.97,53.7,776.33,576.9
2020-10-23,09:55:00,DRY,4.25,4.45,46.0,777.00,597.0
2020-10-23,10:00:00,DRY,5.53,3.90,44.7,776.67,619.2
2020-10-23,10:05:00,DRY,4.30,3.50,50.0,776.50,647.0
2020-10-23,10:10:00,DRY,3.53,3.87,52.3,776.67,696.8
2020-10-23,10:15:00,DRY,4.00,4.20,59.5,777.00,715.0
2020-10-23,10:20:00,DRY,2.90,4.43,55.7,777.00,733.4
2020-10-23,10:25:00,DRY,3.05,4.70,58.5,777.00,750.0
2020-10-23,10:30:00,DRY,3.07,5.13,45.0,777.00,763.6
2020-10-23,10:35:00,DRY,2.85,5.40,55.5,777.00,778.6
2020-10-23,10:40:00,DRY,2.33,5.20,67.3,777.00,793.0
2020-10-23,10:45:00,DRY,2.15,5.10,59.0,777.00,805.6
2020-10-23,10:50:00,DRY,2.10,5.70,58.3,777.00,818.5
2020-10-23,10:55:00,DRY,2.30,6.00,65.0,777.00,831.5
2020-10-23,11:00:00,DRY,1.17,6.53,37.3,777.00,845.6
2020-10-23,11:05:00,DRY,1.45,6.50,54.0,777.00,855.8
2020-10-23,11:10:00,DRY,1.80,6.37,56.7,777.00,866.4
2020-10-23,11:15:00,DRY,1.50,6.85,37.0,777.00,877.5
2020-10-23,11:20:00,DRY,0.57,7.10,49.0,777.00,887.8
2020-10-23,11:25:00,DRY,1.15,7.50,67.5,777.00,900.5
2020-10-23,11:30:00,DRY,2.13,6.63,54.7,777.00,903.9
2020-10-23,11:35:00,DRY,0.60,6.75,68.0,777.00,907.1
2020-10-23,11:40:00,DRY,1.77,7.50,56.7,777.00,912.4
2020-10-23,11:45:00,DRY,2.25,6.70,52.5,777.00,921.0
2020-10-23,11:50:00,DRY,1.73,6.63,60.0,777.00,924.3
2020-10-23,11:55:00,DRY,1.50,6.75,53.5,777.00,932.0
2020-10-23,12:00:00,DRY,1.43,6.97,71.7,777.00,939.3
2020-10-23,12:05:00,DRY,1.80,6.95,75.0,777.00,953.0
2020-10-23,12:10:00,DRY,1.83,6.63,74.7,777.00,956.0
2020-10-23,12:15:00,DRY,3.55,6.15,75.0,777.00,964.2
2020-10-23,12:20:00,DRY,2.27,6.30,79.7,777.00,961.0
2020-10-23,12:25:00,DRY,3.80,5.85,80.0,776.50,960.7
2020-10-23,12:30:00,DRY,3.30,6.17,74.3,777.00,962.2
2020-10-23,12:35:00,DRY,2.10,6.40,69.5,777.00,962.4
2020-10-23,12:40:00,DRY,2.60,6.50,68.7,777.00,967.2
2020-10-23,12:45:00,DRY,3.45,6.60,75.5,777.00,987.4
2020-10-23,12:50:00,DRY,3.27,6.17,85.0,776.67,1017.5
2020-10-23,12:55:00,DRY,3.25,6.20,84.0,776.00,975.1
2020-10-23,13:00:00,DRY,3.13,5.77,89.3,776.67,812.7
2020-10-23,13:05:00,DRY,3.05,5.90,86.0,777.00,908.3
2020-10-23,13:10:00,DRY,1.97,6.13,81.3,777.00,801.6
2020-10-23,13:15:00,DRY,1.60,6.70,80.5,776.50,1001.4
2020-10-23,13:20:00,DRY,1.53,7.07,74.7,777.00,961.3
2020-10-23,13:25:00,DRY,2.60,6.45,84.0,777.00,910.8
2020-10-23,13:30:00,DRY,2.20,6.20,85.0,777.00,1004.6
2020-10-23,13:35:00,DRY,2.20,6.50,81.0,777.00,505.7
2020-10-23,13:40:00,DRY,2.33,6.20,85.0,777.00,1002.0
2020-10-23,13:45:00,DRY,1.60,6.50,82.0,776.50,972.9
2020-10-23,13:50:00,DRY,1.77,6.80,82.7,776.67,868.4
2020-10-23,13:55:00,DRY,2.80,6.80,77.0,776.00,725.2
2020-10-23,14:00:00,DRY,2.10,6.30,84.3,776.00,979.4
2020-10-23,14:05:00,DRY,2.05,6.55,80.0,776.00,955.0
2020-10-23,14:10:00,DRY,2.53,6.20,82.3,776.00,715.1
2020-10-23,14:15:00,DRY,2.15,6.05,87.5,776.00,977.5
2020-10-23,14:20:00,DRY,1.83,6.23,85.0,776.00,945.5
2020-10-23,14:25:00,DRY,2.80,6.65,78.5,776.00,731.1
2020-10-23,14:30:00,DRY,2.27,6.50,80.7,776.00,927.2
2020-10-23,14:35:00,DRY,2.35,6.35,72.0,776.00,885.3
2020-10-23,14:40:00,DRY,2.67,6.77,76.3,776.00,875.3
2020-10-23,14:45:00,DRY,1.20,6.95,78.5,776.00,854.6
2020-10-23,14:50:00,DRY,0.90,7.23,75.7,776.00,834.2
2020-10-23,14:55:00,DRY,2.10,7.15,78.0,776.00,835.2
2020-10-23,15:00:00,DRY,1.33,6.43,76.3,776.00,797.8
2020-10-23,15:05:00,DRY,3.90,6.40,83.0,776.00,842.1
2020-10-23,15:10:00,DRY,3.80,6.40,74.3,776.00,889.8
2020-10-23,15:15:00,DRY,3.25,6.15,83.0,776.00,792.3
2020-10-23,15:20:00,DRY,2.87,6.20,69.3,776.00,790.2
2020-10-23,15:25:00,DRY,2.15,6.50,73.5,776.00,738.8
2020-10-23,15:30:00,DRY,2.47,6.53,77.0,776.00,738.3
2020-10-23,15:35:00,DRY,2.10,6.05,80.0,776.00,762.6
2020-10-23,15:40:00,DRY,1.73,6.03,94.0,776.00,387.6
2020-10-23,15:45:00,DRY,4.35,6.20,80.5,776.00,700.5
2020-10-23,15:50:00,DRY,2.20,6.00,87.7,776.00,697.5
2020-10-23,15:55:00,DRY,3.35,5.90,76.5,776.00,641.8
2020-10-23,16:00:00,DRY,2.97,6.03,73.3,776.00,621.3
2020-10-23,16:05:00,DRY,3.45,6.40,69.5,776.00,603.5
2020-10-23,16:10:00,DRY,3.67,5.87,77.0,776.00,591.7
2020-10-23,16:15:00,DRY,3.90,5.85,64.5,776.00,565.8
2020-10-23,16:20:00,DRY,2.73,6.13,60.0,776.00,544.0
2020-10-23,16:25:00,DRY,3.25,6.15,61.5,776.00,523.6
2020-10-23,16:30:00,DRY,3.80,6.03,70.3,776.00,516.9
2020-10-23,16:35:00,DRY,4.35,5.85,60.5,776.00,484.3
2020-10-23,16:40:00,DRY,4.30,6.33,59.0,776.00,462.7
2020-10-23,16:45:00,DRY,2.75,6.30,59.0,776.00,440.6
2020-10-23,16:50:00,DRY,3.57,6.07,61.7,776.00,420.1
2020-10-23,16:55:00,DRY,2.80,6.65,49.0,776.00,399.5
2020-10-23,17:00:00,DRY,2.87,7.23,46.3,776.00,377.7
2020-10-23,17:05:00,DRY,2.80,7.25,45.0,776.00,355.5
2020-10-23,17:10:00,DRY,2.93,6.83,48.3,776.00,333.7
2020-10-23,17:15:00,DRY,2.35,7.65,32.5,776.00,310.8
2020-10-23,17:20:00,DRY,2.40,7.60,35.3,776.00,288.6
2020-10-23,17:25:00,DRY,2.00,7.10,43.5,776.00,266.1
2020-10-23,17:30:00,DRY,2.43,8.03,24.3,776.00,244.4
2020-10-23,17:35:00,DRY,2.35,7.75,36.5,776.00,223.8
2020-10-23,17:40:00,DRY,2.63,7.37,31.7,776.00,202.6
2020-10-23,17:45:00,DRY,2.45,7.50,28.0,776.00,180.7
2020-10-23,17:50:00,DRY,2.27,7.90,25.3,776.00,160.8
2020-10-23,17:55:00,DRY,2.50,8.00,23.0,776.00,137.2
2020-10-23,18:00:00,DRY,2.97,7.73,21.7,776.00,109.7
2020-10-23,18:05:00,DRY,2.15,7.80,20.0,776.00,83.8
2020-10-23,18:10:00,DRY,2.83,7.50,21.0,776.00,62.0
2020-10-23,18:15:00,DRY,1.95,7.90,16.0,776.50,42.4
2020-10-23,18:20:00,DRY,2.67,7.40,21.7,776.33,28.4
2020-10-23,18:25:00,DRY,2.30,7.60,13.0,776.00,18.4
2020-10-23,18:30:00,DRY,2.00,7.63,15.3,776.67,11.8
2020-10-23,18:35:00,DRY,2.75,7.60,13.0,776.00,8.9
2020-10-23,18:40:00,DRY,2.40,7.73,11.0,776.33,3.9
2020-10-23,18:45:00,DRY,4.35,7.85,10.0,777.00,2.8
2020-10-23,18:50:00,DRY,3.37,8.23,9.7,777.00,2.4
2020-10-23,18:55:00,DRY,3.75,8.90,9.0,777.00,1.8
2020-10-23,19:00:00,DRY,3.70,8.93,8.3,777.00,2.0
2020-10-23,19:05:00,DRY,2.10,9.00,9.0,777.00,1.8
2020-10-23,19:10:00,DRY,2.60,8.60,12.3,777.00,0.8
2020-10-23,19:15:00,DRY,2.70,8.95,12.5,777.00,1.6
2020-10-23,19:20:00,DRY,2.90,8.87,16.0,777.00,1.5
2020-10-23,19:25:00,DRY,2.20,8.80,15.5,777.00,0.3
2020-10-23,19:30:00,DRY,2.40,8.63,17.0,777.00,1.4
2020-10-23,19:35:00,DRY,2.80,8.60,16.0,777.00,1.3
2020-10-23,19:40:00,DRY,3.10,8.80,12.7,777.00,1.0
2020-10-23,19:45:00,DRY,3.40,9.05,10.5,777.00,1.2
2020-10-23,19:50:00,DRY,2.10,9.10,8.3,777.00,1.2
2020-10-23,19:55:00,DRY,2.40,8.65,12.5,777.00,1.2
2020-10-23,20:00:00,DRY,2.87,8.60,9.7,777.00,0.7
2020-10-23,20:05:00,DRY,3.00,8.65,9.0,777.00,1.9
2020-10-23,20:10:00,DRY,3.50,9.03,8.0,777.00,1.6
2020-10-23,20:15:00,DRY,2.35,9.20,7.0,777.00,0.6
2020-10-23,20:20:00,DRY,2.27,9.27,7.7,777.00,0.7
2020-10-23,20:25:00,DRY,3.35,9.50,7.0,777.00,0.9
2020-10-23,20:30:00,DRY,2.93,9.07,8.0,777.00,1.0
2020-10-23,20:35:00,DRY,2.75,9.20,8.0,777.00,1.2
2020-10-23,20:40:00,DRY,3.03,8.73,8.7,777.33,1.8
2020-10-23,20:45:00,DRY,3.20,8.50,9.5,777.50,1.6
2020-10-23,20:50:00,DRY,3.43,8.63,8.0,777.67,1.0
2020-10-23,20:55:00,DRY,3.40,9.05,6.5,778.00,2.3
2020-10-23,21:00:00,DRY,2.57,9.23,6.7,778.00,0.6
2020-10-23,21:05:00,DRY,2.30,9.10,6.0,778.00,1.2
2020-10-23,21:10:00,DRY,3.20,9.03,6.3,778.00,0.7
2020-10-23,21:15:00,DRY,3.95,8.75,8.0,778.00,1.2
2020-10-23,21:20:00,DRY,3.30,9.03,6.7,778.00,1.3
2020-10-23,21:25:00,DRY,2.90,8.80,7.5,778.00,0.9
2020-10-23,21:30:00,DRY,2.70,9.13,6.7,778.00,1.0
2020-10-23,21:35:00,DRY,3.30,9.35,7.0,778.00,1.2
2020-10-23,21:40:00,DRY,3.00,9.33,6.0,778.00,1.2
2020-10-23,21:45:00,DRY,2.50,9.25,6.5,778.00,1.1
2020-10-23,21:50:00,DRY,3.17,8.87,8.0,778.00,1.1
2020-10-23,21:55:00,DRY,2.80,9.60,5.5,778.00,0.7
2020-10-23,22:00:00,DRY,2.50,9.33,5.7,778.00,0.6
2020-10-23,22:05:00,DRY,3.00,9.10,6.0,778.00,1.3
2020-10-23,22:10:00,DRY,3.07,9.03,5.7,778.00,1.8
2020-10-23,22:15:00,DRY,2.25,8.70,6.0,778.00,0.8
2020-10-23,22:20:00,DRY,2.17,8.83,5.7,778.00,1.7
2020-10-23,22:25:00,DRY,2.60,9.05,5.5,778.00,0.9
2020-10-23,22:30:00,DRY,2.57,8.90,6.3,778.00,0.6
2020-10-23,22:35:00,DRY,2.40,9.15,5.5,778.00,1.3
2020-10-23,22:40:00,DRY,3.63,9.53,6.0,778.00,1.0
2020-10-23,22:45:00,DRY,3.00,9.20,5.5,778.00,1.1
2020-10-23,22:50:00,DRY,3.70,9.63,5.0,778.00,1.3
2020-10-23,22:55:00,DRY,3.40,9.45,5.5,778.00,1.1
2020-10-23,23:00:00,DRY,3.07,9.77,5.0,778.00,1.1
2020-10-23,23:05:00,DRY,3.35,9.50,6.5,778.00,1.5
2020-10-23,23:10:00,DRY,3.03,9.60,5.0,778.00,1.6
2020-10-23,23:15:00,DRY,1.25,9.55,4.5,778.00,1.1
2020-10-23,23:20:00,DRY,3.07,9.17,5.7,778.00,1.0
2020-10-23,23:25:00,DRY,2.85,9.50,4.0,778.00,1.3
2020-10-23,23:30:00,DRY,2.67,9.60,4.0,778.00,1.0
2020-10-23,23:35:00,DRY,2.55,9.70,4.0,778.00,1.6
2020-10-23,23:40:00,DRY,2.63,9.43,4.0,778.00,1.4
2020-10-23,23:45:00,DRY,2.65,9.35,4.5,778.00,1.1
2020-10-23,23:50:00,DRY,2.60,9.13,4.7,778.00,0.5
2020-10-23,23:55:00,DRY,2.40,8.90,5.0,778.00,1.4
2020-10-24,00:00:00,DRY,2.50,9.27,4.3,778.00,1.2
2020-10-24,00:05:00,DRY,2.85,8.90,5.0,778.00,1.5
2020-10-24,00:10:00,DRY,2.93,8.73,6.0,778.00,1.1
2020-10-24,00:15:00,DRY,2.45,9.05,4.5,778.00,1.9
2020-10-24,00:20:00,DRY,2.33,9.27,5.0,778.00,1.4
2020-10-24,00:25:00,DRY,2.45,9.30,4.0,778.00,1.1
2020-10-24,00:30:00,DRY,2.17,9.43,4.3,778.00,0.8
2020-10-24,00:35:00,DRY,1.85,9.85,5.0,778.00,0.6
2020-10-24,00:40:00,DRY,1.40,9.60,6.3,778.00,1.4
2020-10-24,00:45:00,DRY,1.60,9.45,7.0,778.00,2.3
2020-10-24,00:50:00,DRY,1.43,9.63,6.0,778.00,1.5
2020-10-24,00:55:00,DRY,1.20,9.55,6.5,778.00,1.9
2020-10-24,01:00:00,DRY,1.93,9.40,6.3,778.00,1.0
2020-10-24,01:05:00,DRY,1.70,9.55,7.5,778.00,1.6
2020-10-24,01:10:00,DRY,1.63,9.53,5.7,778.00,1.5
2020-10-24,01:15:00,DRY,2.05,9.60,6.5,778.00,0.8
2020-10-24,01:20:00,DRY,2.57,9.17,6.3,778.00,1.3
2020-10-24,01:25:00,DRY,2.70,9.05,6.0,778.00,1.1
2020-10-24,01:30:00,DRY,2.70,9.37,4.7,778.00,1.5
2020-10-24,01:35:00,DRY,2.10,9.50,4.5,778.00,1.7
2020-10-24,01:40:00,DRY,2.17,9.33,5.0,778.00,0.9
2020-10-24,01:45:00,DRY,3.00,8.85,6.0,778.00,0.8
2020-10-24,01:50:00,DRY,3.60,8.70,6.0,778.00,1.2
2020-10-24,01:55:00,DRY,2.90,8.60,6.5,778.00,0.8
2020-10-24,02:00:00,DRY,3.03,8.97,4.7,778.00,1.0
2020-10-24,02:05:00,DRY,2.40,9.25,4.5,778.00,0.4
2020-10-24,02:10:00,DRY,2.73,9.37,5.7,778.00,2.0
2020-10-24,02:15:00,DRY,2.85,9.35,5.5,778.00,1.2
2020-10-24,02:20:00,DRY,2.57,9.17,5.7,778.00,1.7
2020-10-24,02:25:00,DRY,2.35,9.20,5.0,778.00,2.0
2020-10-24,02:30:00,DRY,2.83,9.17,5.3,778.00,1.1
2020-10-24,02:35:00,DRY,2.75,9.20,4.5,778.00,1.7
2020-10-24,02:40:00,DRY,3.43,9.00,5.7,778.00,1.0
2020-10-24,02:45:00,DRY,3.35,8.95,6.5,778.00,1.1
2020-10-24,02:50:00,DRY,2.47,8.83,6.7,777.67,1.1
2020-10-24,02:55:00,DRY,4.15,8.90,8.0,777.00,2.1
2020-10-24,03:00:00,DRY,3.37,8.87,8.3,777.33,1.3
2020-10-24,03:05:00,DRY,3.80,8.85,8.0,777.50,1.3
2020-10-24,03:10:00,DRY,3.13,8.97,8.0,777.00,1.1
2020-10-24,03:15:00,DRY,3.75,9.15,7.5,777.00,1.1
2020-10-24,03:20:00,DRY,3.27,9.07,7.3,777.00,1.5
2020-10-24,03:25:00,DRY,3.10,9.00,7.5,777.00,1.4
2020-10-24,03:30:00,DRY,2.83,8.80,8.0,777.00,1.9
2020-10-24,03:35:00,DRY,2.80,9.00,7.0,777.00,1.2
2020-10-24,03:40:00,DRY,2.43,9.30,6.7,777.00,1.5
2020-10-24,03:45:00,DRY,2.30,9.40,6.5,777.00,1.1
2020-10-24,03:50:00,DRY,2.27,9.50,6.3,777.00,0.8
2020-10-24,03:55:00,DRY,1.80,9.55,8.0,777.00,2.1
2020-10-24,04:00:00,DRY,2.23,9.43,8.0,777.00,1.5
2020-10-24,04:05:00,DRY,1.65,9.30,8.0,777.00,1.5
2020-10-24,04:10:00,DRY,1.90,9.30,7.3,777.00,1.6
2020-10-24,04:15:00,DRY,2.80,9.40,8.0,777.00,1.6
2020-10-24,04:20:00,DRY,3.30,9.50,7.7,777.00,1.0
2020-10-24,04:25:00,DRY,3.60,9.00,8.0,777.00,1.5
2020-10-24,04:30:00,DRY,2.87,9.10,8.0,777.00,0.9
2020-10-24,04:35:00,DRY,2.45,9.20,8.0,777.00,0.9
2020-10-24,04:40:00,DRY,2.57,9.13,8.3,777.00,2.1
2020-10-24,04:45:00,DRY,2.20,9.35,8.0,777.00,2.0
2020-10-24,04:50:00,DRY,2.43,9.20,9.0,777.00,0.9
2020-10-24,04:55:00,DRY,1.75,9.00,9.5,777.00,0.8
2020-10-24,05:00:00,DRY,3.63,9.07,9.0,777.00,1.0
2020-10-24,05:05:00,DRY,2.55,9.20,9.0,777.00,1.2
2020-10-24,05:10:00,DRY,2.23,9.40,8.3,777.00,2.0
2020-10-24,05:15:00,DRY,2.30,9.55,7.0,777.50,1.2
2020-10-24,05:20:00,DRY,1.67,9.70,7.3,777.33,0.9
2020-10-24,05:25:00,DRY,1.50,9.60,7.0,777.50,1.8
2020-10-24,05:30:00,DRY,1.40,9.57,7.7,777.00,2.0
2020-10-24,05:35:00,DRY,1.30,9.35,8.0,777.50,1.4
2020-10-24,05:40:00,DRY,2.00,9.47,7.7,777.33,1.0
2020-10-24,05:45:00,DRY,1.75,10.05,6.5,777.00,1.2
2020-10-24,05:50:00,DRY,1.50,9.97,6.7,777.33,1.4
2020-10-24,05:55:00,DRY,1.30,9.25,8.0,778.00,1.1
2020-10-24,06:00:00,DRY,1.67,9.50,7.3,777.67,1.1
2020-10-24,06:05:00,DRY,1.85,9.55,8.0,777.50,2.5
2020-10-24,06:10:00,DRY,1.87,9.77,8.0,778.00,1.0
2020-10-24,06:15:00,DRY,2.50,9.55,9.0,778.00,1.7
2020-10-24,06:20:00,DRY,2.20,9.27,9.7,778.00,1.1
2020-10-24,06:25:00,DRY,2.05,9.35,9.0,777.50,1.5
2020-10-24,06:30:00,DRY,2.40,9.50,9.0,778.00,0.9
2020-10-24,06:35:00,DRY,2.45,8.50,11.5,778.00,0.9
2020-10-24,06:40:00,DRY,2.63,8.67,10.0,778.00,0.8
2020-10-24,06:45:00,DRY,1.90,8.60,8.5,778.00,0.8
2020-10-24,06:50:00,DRY,1.63,9.90,6.3,778.00,2.1
2020-10-24,06:55:00,DRY,0.45,9.90,7.5,778.00,1.1
2020-10-24,07:00:00,DRY,0.70,9.47,7.0,778.00,1.0
2020-10-24,07:05:00,DRY,0.40,9.20,6.5,778.00,2.1
2020-10-24,07:10:00,DRY,0.97,9.70,5.7,778.00,3.1
2020-10-24,07:15:00,DRY,1.85,10.35,5.5,778.00,4.5
2020-10-24,07:20:00,DRY,1.73,9.47,7.3,778.00,7.0
2020-10-24,07:25:00,DRY,1.90,9.05,8.0,778.00,9.9
2020-10-24,07:30:00,DRY,2.67,8.53,8.7,778.00,14.1
2020-10-24,07:35:00,DRY,2.90,9.10,8.5,778.00,16.9
2020-10-24,07:40:00,DRY,2.50,8.70,9.0,778.00,19.5
2020-10-24,07:45:00,DRY,2.65,9.50,8.5,778.00,20.9
2020-10-24,07:50:00,DRY,3.23,9.33,8.7,778.00,23.2
2020-10-24,07:55:00,DRY,3.00,9.40,9.0,778.00,40.2
2020-10-24,08:00:00,DRY,3.03,9.53,9.0,778.00,180.0
2020-10-24,08:05:00,DRY,2.80,9.80,9.0,778.00,202.2
2020-10-24,08:10:00,DRY,1.97,9.93,9.0,778.00,225.2
2020-10-24,08:15:00,DRY,2.10,10.30,8.5,778.00,247.4
2020-10-24,08:20:00,DRY,1.30,10.20,9.0,778.00,270.2
2020-10-24,08:25:00,DRY,1.10,10.50,9.0,778.00,293.4
2020-10-24,08:30:00,DRY,2.50,10.57,9.3,778.00,316.3
2020-10-24,08:35:00,DRY,3.00,10.50,9.0,778.00,338.4
2020-10-24,08:40:00,DRY,3.13,10.47,8.7,778.00,361.0
2020-10-24,08:45:00,DRY,2.55,10.80,8.0,778.00,382.8
2020-10-24,08:50:00,DRY,2.13,11.10,7.7,778.00,405.4
2020-10-24,08:55:00,DRY,1.50,11.00,8.5,778.00,427.8
2020-10-24,09:00:00,DRY,2.40,11.00,9.0,778.00,449.3
2020-10-24,09:05:00,DRY,3.30,10.85,9.0,778.00,470.4
2020-10-24,09:10:00,DRY,1.07,11.23,9.7,778.00,491.0
2020-10-24,09:15:00,DRY,1.95,11.45,9.0,778.00,510.8
2020-10-24,09:20:00,DRY,1.60,11.43,9.0,778.00,531.8
2020-10-24,09:25:00,DRY,2.65,11.55,9.5,778.00,552.0
2020-10-24,09:30:00,DRY,1.67,11.70,9.3,778.00,572.0
2020-10-24,09:35:00,DRY,1.50,11.80,9.0,778.50,591.0
2020-10-24,09:40:00,DRY,0.53,12.33,10.0,779.00,609.6
2020-10-24,09:45:00,DRY,1.00,12.20,8.5,779.00,628.1
2020-10-24,09:50:00,DRY,0.57,12.00,11.0,779.00,646.0
2020-10-24,09:55:00,DRY,1.20,12.15,11.0,779.00,664.0
2020-10-24,10:00:00,DRY,0.90,12.20,10.0,778.67,679.6
2020-10-24,10:05:00,DRY,1.15,12.55,9.5,779.00,696.3
2020-10-24,10:10:00,DRY,2.40,11.97,10.3,779.00,713.3
2020-10-24,10:15:00,DRY,1.40,12.00,9.5,779.00,729.2
2020-10-24,10:20:00,DRY,0.83,12.60,10.3,779.00,745.5
2020-10-24,10:25:00,DRY,1.40,12.70,12.5,779.00,759.6
2020-10-24,10:30:00,DRY,1.30,12.20,13.7,779.00,774.0
2020-10-24,10:35:00,DRY,0.80,12.40,11.5,779.00,788.5
2020-10-24,10:40:00,DRY,2.00,12.40,11.3,779.00,801.0
2020-10-24,10:45:00,DRY,1.75,12.40,11.5,779.00,814.3
2020-10-24,10:50:00,DRY,1.33,12.70,14.0,779.00,827.5
2020-10-24,10:55:00,DRY,1.40,12.60,16.0,779.00,839.0
2020-10-24,11:00:00,DRY,1.43,12.70,14.7,779.00,850.9
2020-10-24,11:05:00,DRY,1.75,12.75,15.0,779.00,860.7
2020-10-24,11:10:00,DRY,0.70,12.77,16.0,779.00,872.6
2020-10-24,11:15:00,DRY,1.20,13.05,17.0,779.00,882.6
2020-10-24,11:20:00,DRY,0.87,13.33,13.0,779.00,893.0
2020-10-24,11:25:00,DRY,2.10,13.30,14.0,779.00,901.6
2020-10-24,11:30:00,DRY,1.77,13.13,19.3,779.00,908.7
2020-10-24,11:35:00,DRY,2.50,12.85,20.5,779.00,916.6
2020-10-24,11:40:00,DRY,2.63,12.40,17.7,779.00,925.1
2020-10-24,11:45:00,DRY,3.00,12.45,13.5,779.00,930.6
2020-10-24,11:50:00,DRY,2.87,12.47,12.3,779.00,937.7
2020-10-24,11:55:00,DRY,2.35,12.40,13.0,779.00,945.2
2020-10-24,12:00:00,DRY,1.57,12.53,14.3,779.00,951.9
2020-10-24,12:05:00,DRY,2.35,12.80,11.0,779.00,955.5
2020-10-24,12:10:00,DRY,1.57,13.17,12.7,779.00,960.7
2020-10-24,12:15:00,DRY,2.20,13.10,12.0,779.00,965.4
2020-10-24,12:20:00,DRY,0.73,13.33,13.3,779.00,969.0
2020-10-24,12:25:00,DRY,1.35,13.40,13.0,779.00,974.5
2020-10-24,12:30:00,DRY,1.40,13.50,12.3,778.67,977.2
2020-10-24,12:35:00,DRY,1.20,13.90,10.0,778.00,979.7
2020-10-24,12:40:00,DRY,0.87,13.70,12.0,778.33,981.6
2020-10-24,12:45:00,DRY,0.85,13.65,13.0,778.00,982.5
2020-10-24,12:50:00,DRY,1.40,14.07,16.0,778.00,983.9
2020-10-24,12:55:00,DRY,1.85,13.90,15.5,778.00,984.4
2020-10-24,13:00:00,DRY,1.57,13.63,11.7,778.00,982.8
2020-10-24,13:05:00,DRY,2.05,13.80,12.0,778.00,981.4
2020-10-24,13:10:00,DRY,1.00,13.73,15.0,778.00,979.2
2020-10-24,13:15:00,DRY,1.40,13.85,12.5,778.00,973.5
2020-10-24,13:20:00,DRY,1.30,13.53,14.7,778.00,974.4
2020-10-24,13:25:00,DRY,2.15,13.60,16.0,778.00,970.4
2020-10-24,13:30:00,DRY,1.70,13.00,16.0,778.00,968.0
2020-10-24,13:35:00,DRY,1.60,13.30,17.0,778.00,963.4
2020-10-24,13:40:00,DRY,1.90,13.30,14.7,778.00,959.6
2020-10-24,13:45:00,DRY,2.70,13.45,14.5,778.00,953.6
2020-10-24,13:50:00,DRY,2.60,13.10,13.7,778.00,947.2
2020-10-24,13:55:00,DRY,2.50,13.10,14.5,778.00,941.5
2020-10-24,14:00:00,DRY,1.60,13.17,15.3,778.00,932.4
2020-10-24,14:05:00,DRY,2.30,13.35,14.5,778.00,925.8
2020-10-24,14:10:00,DRY,1.43,13.40,14.3,778.00,919.1
2020-10-24,14:15:00,DRY,2.55,13.10,13.0,778.00,911.2
2020-10-24,14:20:00,DRY,1.17,13.07,15.7,778.00,902.5
2020-10-24,14:25:00,DRY,2.20,13.20,19.5,778.00,895.3
2020-10-24,14:30:00,DRY,2.43,13.10,20.7,778.00,887.6
2020-10-24,14:35:00,DRY,1.35,12.60,14.5,778.00,879.0
2020-10-24,14:40:00,DRY,1.63,13.00,15.3,778.00,866.9
2020-10-24,14:45:00,DRY,1.45,12.95,34.0,778.00,857.0
2020-10-24,14:50:00,DRY,1.57,11.87,30.0,778.00,847.6
2020-10-24,14:55:00,DRY,2.05,11.85,34.5,778.00,841.6
2020-10-24,15:00:00,DRY,1.43,12.03,21.7,778.00,838.3
2020-10-24,15:05:00,DRY,1.20,12.50,25.5,778.00,749.8
2020-10-24,15:10:00,DRY,1.13,12.97,22.0,778.00,757.8
2020-10-24,15:15:00,DRY,0.60,12.20,20.0,778.00,763.1
2020-10-24,15:20:00,DRY,0.77,12.20,19.7,778.00,744.2
2020-10-24,15:25:00,DRY,1.75,12.00,31.5,778.00,581.5
2020-10-24,15:30:00,DRY,1.40,11.57,32.7,778.00,506.0
2020-10-24,15:35:00,DRY,1.50,11.10,35.5,778.00,586.0
2020-10-24,15:40:00,DRY,1.10,11.57,26.0,778.00,562.4
2020-10-24,15:45:00,DRY,1.30,11.70,20.0,778.00,550.0
2020-10-24,15:50:00,DRY,0.70,12.00,24.7,778.00,469.1
2020-10-24,15:55:00,DRY,1.50,12.20,18.5,778.00,529.2
2020-10-24,16:00:00,DRY,1.83,12.10,14.0,778.00,515.1
2020-10-24,16:05:00,DRY,2.20,12.05,15.0,778.00,381.1
2020-10-24,16:10:00,DRY,1.27,12.23,15.0,778.00,303.4
2020-10-24,16:15:00,DRY,0.50,12.15,16.0,778.00,447.2
2020-10-24,16:20:00,DRY,1.10,12.63,16.0,778.00,547.1
2020-10-24,16:25:00,DRY,1.65,12.55,14.0,778.00,437.2
2020-10-24,16:30:00,DRY,2.03,12.13,15.0,778.00,580.8
2020-10-24,16:35:00,DRY,1.85,12.05,15.0,778.00,437.6
2020-10-24,16:40:00,DRY,1.97,11.77,18.0,778.00,349.1
2020-10-24,16:45:00,DRY,2.65,11.10,23.5,778.00,305.9
2020-10-24,16:50:00,DRY,2.03,11.03,25.3,778.00,469.9
2020-10-24,16:55:00,DRY,2.05,11.85,21.5,778.00,441.2
2020-10-24,17:00:00,DRY,1.03,12.30,15.3,778.00,243.0
2020-10-24,17:05:00,DRY,1.15,11.35,31.0,778.00,215.8
2020-10-24,17:10:00,DRY,1.10,10.83,27.3,778.00,232.8
2020-10-24,17:15:00,DRY,1.60,11.65,12.5,778.00,413.3
2020-10-24,17:20:00,DRY,1.90,11.53,22.0,778.00,326.3
2020-10-24,17:25:00,DRY,1.80,10.90,28.5,778.00,241.8
2020-10-24,17:30:00,DRY,0.90,10.50,28.0,778.00,206.2
2020-10-24,17:35:00,DRY,0.60,10.50,30.0,778.00,137.8
2020-10-24,17:40:00,DRY,0.47,10.53,28.7,778.00,94.7
2020-10-24,17:45:00,DRY,1.15,10.75,27.5,778.00,142.3
2020-10-24,17:50:00,DRY,1.00,11.03,22.0,778.00,128.8
2020-10-24,17:55:00,DRY,0.90,11.30,19.5,778.00,133.2
2020-10-24,18:00:00,DRY,1.33,11.47,15.0,778.00,118.2
2020-10-24,18:05:00,DRY,1.75,11.20,13.5,778.00,52.6
2020-10-24,18:10:00,DRY,1.73,10.83,11.0,778.00,48.8
2020-10-24,18:15:00,DRY,1.15,10.55,11.0,778.00,34.9
2020-10-24,18:20:00,DRY,1.97,10.37,12.3,778.00,23.4
2020-10-24,18:25:00,DRY,2.00,10.30,9.5,778.00,15.3
2020-10-24,18:30:00,DRY,0.67,10.23,10.0,778.00,9.7